Location: S�tio Afonso Gruber
(26.1760°S, 49.5250°W)
Time: 09:08:40
(UTC+00:00)

NANOSAT C BR1 - Pass Details

Date: 02 December 2022
Orbit: 579 x 594 km, 98.0° (Epoch: 05 February)

Event Time Altitude Azimuth Distance (km) Brightness Sun altitude
Exits shadow 05:34:08 10° 209° (SSW) 1,891 ? -30.2°
Drops below altitude 10° 05:34:12 10° 208° (SSW) 1,913 ? -30.2°
Sets 05:36:28 0° 201° (SSW) 2,821 ? -29.8°
